Weather History for El Reno, OK

Change the Weather History Date:

Thursday, November 7, 2013

  Actual Average (KOKC) Record (KOKC)
Temperature  
Mean Temperature 48 °F 54 °F  
Max Temperature 62 °F 66 °F 86 °F (1980)
Min Temperature 33 °F 44 °F 23 °F (1993)
Degree Days  
Heating Degree Days 18 11  
Month to date heating degree days 69  
Since 1 July heating degree days 233  
Cooling Degree Days 0 1  
Month to date cooling degree days 7  
Year to date cooling degree days 2099  
Moisture  
Dew Point 34 °F    
Average Humidity 66    
Maximum Humidity 93    
Minimum Humidity 32    
Precipitation  
Precipitation 0.00 in 0.07 in 1.71 in (1920)
Month to date precipitation 0.58  
Year to date precipitation 33.24  
Snow  
Snow 0.00 in 0.00 in 1.90 in (1938)
Month to date snowfall 0.0  
Since 1 July snowfall T  
Snow Depth -    
Sea Level Pressure  
Sea Level Pressure 30.40 in    
Wind  
Wind Speed 8 mph (SW)    
Max Wind Speed 13 mph    
Max Gust Speed 17 mph    
Visibility 10 miles    
Events      
T = Trace of Precipitation, MM = Missing Value Source: NWS Daily Summary

Daily Weather History Graph

Daily Weather History Graph

Search for Another Location

Airport:

Trip Planner

Search our weather history database for the weather conditions in past years. The results will help you decide how hot, cold, wet, or windy it might be!

Date:

Astronomy

Nov. 07, 2013 Rise Set
Actual Time 6:59 AM CST 5:31 PM CST
Civil Twilight 6:33 AM CST 5:57 PM CST
Nautical Twilight 6:02 AM CST 6:28 PM CST
Astronomical Twilight 5:32 AM CST 6:58 PM CST
Moon 11:07 AM CST (11/7) 9:45 PM CST (11/7)
Length of Visible Light 11h 24m
Length of Day
10h 31m
Waxing Crescent, 23% of the Moon is Illuminated
Nov 7
Waxing Crescent
Nov 9
First Quarter
Nov 17
Full
Nov 25
Last Quarter
Dec 2
New

Hourly Weather History & Observations

Time (CST) Temp. Windchill Dew Point Humidity Pressure Visibility Wind Dir Wind Speed Gust Speed Precip Events Conditions
12:15 AM 35.6 °F 30.7 °F 32.0 °F 87% 30.39 in 10.0 mi SSW 5.8 mph - N/A   Clear
12:35 AM 35.6 °F 30.7 °F 32.0 °F 87% 30.39 in 10.0 mi SW 5.8 mph - N/A   Clear
12:55 AM 35.6 °F 29.2 °F 32.0 °F 87% 30.39 in 10.0 mi WSW 8.1 mph - N/A   Clear
1:15 AM 33.8 °F 27.7 °F 32.0 °F 93% 30.39 in 10.0 mi WSW 6.9 mph - N/A   Clear
1:55 AM 33.8 °F 30.8 °F 32.0 °F 93% 30.38 in 10.0 mi West 3.5 mph - N/A   Clear
2:15 AM 35.6 °F 31.7 °F 32.0 °F 87% 30.38 in 10.0 mi West 4.6 mph - N/A   Clear
2:35 AM 35.6 °F 28.6 °F 32.0 °F 87% 30.39 in 10.0 mi WSW 9.2 mph - N/A   Clear
2:55 AM 33.8 °F 27.7 °F 32.0 °F 93% 30.40 in 10.0 mi WSW 6.9 mph - N/A   Clear
3:15 AM 33.8 °F 27.7 °F 32.0 °F 93% 30.40 in 10.0 mi West 6.9 mph - N/A   Clear
3:35 AM 33.8 °F 27.7 °F 32.0 °F 93% 30.40 in 10.0 mi West 6.9 mph - N/A   Clear
3:55 AM 35.6 °F 28.0 °F 32.0 °F 87% 30.40 in 10.0 mi West 10.4 mph - N/A   Clear
4:15 AM 35.6 °F 29.2 °F 32.0 °F 87% 30.40 in 10.0 mi West 8.1 mph - N/A   Clear
4:35 AM 35.6 °F 28.6 °F 32.0 °F 87% 30.41 in 10.0 mi West 9.2 mph - N/A   Clear
4:55 AM 35.6 °F 28.6 °F 32.0 °F 87% 30.41 in 10.0 mi West 9.2 mph - N/A   Clear
5:15 AM 35.6 °F 28.6 °F 32.0 °F 87% 30.41 in 10.0 mi West 9.2 mph - N/A   Clear
5:35 AM 35.6 °F 29.2 °F 32.0 °F 87% 30.42 in 10.0 mi West 8.1 mph - N/A   Clear
5:55 AM 35.6 °F 29.2 °F 32.0 °F 87% 30.42 in 10.0 mi West 8.1 mph - N/A   Clear
6:15 AM 35.6 °F 29.2 °F 32.0 °F 87% 30.43 in 10.0 mi West 8.1 mph - N/A   Clear
6:35 AM 33.8 °F 27.0 °F 32.0 °F 93% 30.43 in 10.0 mi West 8.1 mph - N/A   Clear
6:55 AM 33.8 °F 28.6 °F 32.0 °F 93% 30.43 in 10.0 mi West 5.8 mph - N/A   Clear
7:15 AM 33.8 °F 26.4 °F 32.0 °F 93% 30.44 in 10.0 mi SW 9.2 mph - N/A   Clear
7:35 AM 35.6 °F 28.0 °F 32.0 °F 87% 30.45 in 10.0 mi WSW 10.4 mph - N/A   Clear
7:55 AM 37.4 °F 31.4 °F 33.8 °F 87% 30.45 in 10.0 mi WSW 8.1 mph - N/A   Clear
8:15 AM 41.0 °F 34.7 °F 33.8 °F 76% 30.46 in 10.0 mi West 10.4 mph - N/A   Clear
8:35 AM 42.8 °F 37.5 °F 35.6 °F 76% 30.46 in 10.0 mi WSW 9.2 mph - N/A   Clear
8:55 AM 44.6 °F 39.2 °F 35.6 °F 71% 30.46 in 10.0 mi West 10.4 mph - N/A   Clear
9:15 AM 48.2 °F - 35.6 °F 62% 30.46 in 10.0 mi West 10.4 mph - N/A   Clear
9:35 AM 50.0 °F - 35.6 °F 58% 30.47 in 10.0 mi WSW 11.5 mph - N/A   Clear
9:55 AM 51.8 °F - 35.6 °F 54% 30.48 in 10.0 mi WSW 12.7 mph - N/A   Clear
10:15 AM 53.6 °F - 35.6 °F 51% 30.48 in 10.0 mi West 10.4 mph - N/A   Clear
10:35 AM 53.6 °F - 35.6 °F 51% 30.47 in 10.0 mi West 9.2 mph - N/A   Clear
10:55 AM 55.4 °F - 35.6 °F 47% 30.48 in 10.0 mi WSW 8.1 mph - N/A   Clear
11:15 AM 57.2 °F - 33.8 °F 41% 30.47 in 10.0 mi West 8.1 mph - N/A   Clear
11:35 AM 59.0 °F - 33.8 °F 39% 30.47 in 10.0 mi WSW 11.5 mph 17.3 mph N/A   Clear
11:55 AM 59.0 °F - 33.8 °F 39% 30.46 in 10.0 mi WSW 12.7 mph - N/A   Clear
12:15 PM 60.8 °F - 33.8 °F 36% 30.45 in 10.0 mi West 10.4 mph - N/A   Clear
12:35 PM 60.8 °F - 33.8 °F 36% 30.44 in 10.0 mi WSW 10.4 mph - N/A   Clear
12:55 PM 60.8 °F - 33.8 °F 36% 30.43 in 10.0 mi WSW 8.1 mph - N/A   Clear
1:15 PM 60.8 °F - 33.8 °F 36% 30.42 in 10.0 mi WSW 8.1 mph - N/A   Clear
1:55 PM 62.6 °F - 32.0 °F 32% 30.40 in 10.0 mi SW 6.9 mph - N/A   Clear
2:15 PM 62.6 °F - 32.0 °F 32% 30.40 in 10.0 mi WSW 6.9 mph - N/A   Clear
2:35 PM 62.6 °F - 32.0 °F 32% 30.39 in 10.0 mi West 6.9 mph - N/A   Clear
2:55 PM 62.6 °F - 32.0 °F 32% 30.39 in 10.0 mi WSW 3.5 mph - N/A   Clear
3:15 PM 62.6 °F - 32.0 °F 32% 30.38 in 10.0 mi West 4.6 mph - N/A   Clear
3:35 PM 62.6 °F - 32.0 °F 32% 30.37 in 10.0 mi WSW 6.9 mph - N/A   Clear
3:55 PM 62.6 °F - 32.0 °F 32% 30.37 in 10.0 mi SW 5.8 mph - N/A   Clear
4:15 PM 62.6 °F - 32.0 °F 32% 30.37 in 10.0 mi WSW 6.9 mph - N/A   Clear
4:55 PM 60.8 °F - 37.4 °F 42% 30.37 in 10.0 mi SSW 4.6 mph - N/A   Clear
5:15 PM 55.4 °F - 37.4 °F 51% 30.37 in 10.0 mi SSW 6.9 mph - N/A   Clear
5:35 PM 53.6 °F - 37.4 °F 54% 30.38 in 10.0 mi SSW 5.8 mph - N/A   Clear
5:55 PM 51.8 °F - 35.6 °F 54% 30.38 in 10.0 mi SSW 6.9 mph - N/A   Clear
6:15 PM 51.8 °F - 35.6 °F 54% 30.38 in 10.0 mi South 4.6 mph - N/A   Clear
6:35 PM 51.8 °F - 35.6 °F 54% 30.38 in 10.0 mi South 6.9 mph - N/A   Clear
6:55 PM 50.0 °F - 35.6 °F 58% 30.38 in 10.0 mi SSW 8.1 mph - N/A   Clear
7:15 PM 48.2 °F - 35.6 °F 62% 30.38 in 10.0 mi SSW 9.2 mph - N/A   Clear
7:35 PM 48.2 °F - 35.6 °F 62% 30.38 in 10.0 mi South 6.9 mph - N/A   Clear
7:55 PM 46.4 °F 42.9 °F 35.6 °F 66% 30.37 in 10.0 mi South 6.9 mph - N/A   Clear
8:15 PM 46.4 °F 42.4 °F 35.6 °F 66% 30.36 in 10.0 mi South 8.1 mph - N/A   Clear
8:35 PM 46.4 °F 42.4 °F 35.6 °F 66% 30.36 in 10.0 mi South 8.1 mph - N/A   Clear
8:55 PM 46.4 °F 41.9 °F 35.6 °F 66% 30.36 in 10.0 mi South 9.2 mph - N/A   Clear
9:15 PM 44.6 °F 39.7 °F 37.4 °F 76% 30.36 in 10.0 mi South 9.2 mph - N/A   Clear
9:35 PM 44.6 °F 39.7 °F 35.6 °F 71% 30.36 in 10.0 mi South 9.2 mph - N/A   Clear
9:55 PM 44.6 °F 40.2 °F 35.6 °F 71% 30.36 in 10.0 mi South 8.1 mph - N/A   Clear
10:15 PM 42.8 °F 38.6 °F 35.6 °F 76% 30.36 in 10.0 mi South 6.9 mph - N/A   Clear
10:35 PM 44.6 °F 40.2 °F 35.6 °F 71% 30.35 in 10.0 mi SSW 8.1 mph - N/A   Clear
10:55 PM 42.8 °F 38.0 °F 35.6 °F 76% 30.35 in 10.0 mi South 8.1 mph - N/A   Clear
11:15 PM 42.8 °F 38.6 °F 33.8 °F 70% 30.35 in 10.0 mi SSW 6.9 mph - N/A   Clear
11:35 PM 42.8 °F 38.0 °F 33.8 °F 70% 30.34 in 10.0 mi South 8.1 mph - N/A   Clear
11:55 PM 42.8 °F 38.0 °F 33.8 °F 70% 30.34 in 10.0 mi South 8.1 mph - N/A   Clear